EW8956 Weather Reports


time (UTC)temp
C
wind
direction
speed
KPH
gust
KPH
rain 1hr
cm
rain 24hr
cm
rain mn
cm
humidity
%
barometer
mb
20260507073050 17 213 0.0 6.4 0.03 0.25 0.10 93 1011.5
20260507071550 17 0 0.0 3.2 0.00 0.23 0.08 93 1011.5
20260507064553 17 0 0.0 3.2 0.00 0.23 0.08 93 1011.4
20260507063048 17 0 0.0 3.2 0.03 0.23 0.08 93 1011.5
20260507061552 17 0 0.0 3.2 0.05 0.23 0.08 93 1011.8
20260507060049 17 0 1.6 8.0 0.08 0.23 0.08 92 1012.8
20260507054607 17 232 0.0 3.2 0.08 0.23 0.08 92 1012.9
20260507053059 17 232 1.6 8.0 0.05 0.20 0.05 92 1012.7
20260507051555 17 230 0.0 4.8 0.03 0.18 0.03 92 1013.4
20260507050055 17 178 0.0 3.2 0.00 0.15 0.00 92 1012.9
20260507044556 17 175 0.0 1.6 0.00 0.15 0.00 91 1012.9
20260507043049 17 0 0.0 3.2 0.03 0.15 0.00 91 1012.9
20260507041602 17 0 0.0 1.6 0.05 0.15 0.00 90 1012.6
20260507040052 17 257 1.6 14.5 0.10 0.15 0.00 89 1012.3
20260507034553 17 151 1.6 8.0 0.10 0.15 0.15 89 1012.4
20260507033053 18 0 3.2 11.3 0.10 0.13 0.13 89 1013.2
20260507031547 18 234 1.6 22.5 0.08 0.10 0.10 87 1014.2
20260507030053 18 33 1.6 8.0 0.03 0.05 0.05 87 1013.8
20260507024554 19 221 1.6 12.9 0.05 0.05 0.05 86 1013.5
20260507023052 19 230 0.0 16.1 0.03 0.03 0.03 86 1013.4
20260507021618 20 0 1.6 11.3 0.03 0.03 0.03 86 1013.1
20260507020107 20 0 0.0 6.4 0.03 0.03 0.03 86 1012.8
20260507014611 20 0 0.0 8.0 0.00 0.00 0.00 85 1012.1
20260507013047 20 0 0.0 6.4 0.00 0.00 0.00 83 1012.2
20260507011556 20 0 0.0 4.8 0.00 0.00 0.00 83 1012.4
20260507010050 20 0 0.0 8.0 0.00 0.00 0.00 81 1012.7
20260507004550 20 0 0.0 6.4 0.00 0.00 0.00 80 1012.5
20260507003050 21 0 0.0 3.2 0.00 0.00 0.00 79 1012.4
20260507001601 21 229 0.0 4.8 0.00 0.00 0.00 76 1012.5
20260507000056 21 214 0.0 8.0 0.00 0.00 0.00 75 1012.3
20260506234607 21 0 0.0 4.8 0.00 0.00 0.00 74 1012.2
20260506233051 21 213 0.0 4.8 0.00 0.00 0.00 74 1012.2
20260506231553 21 0 0.0 12.9 0.00 0.00 0.00 73 1012.2
20260506230103 21 0 0.0 14.5 0.00 0.00 0.00 73 1012.6
20260506224552 21 219 0.0 16.1 0.00 0.00 0.00 72 1012.6
20260506223049 21 0 0.0 12.9 0.00 0.00 0.00 72 1012.9
20260506221555 21 211 1.6 16.1 0.00 0.00 0.00 71 1012.9
20260506220051 21 194 6.4 24.1 0.00 0.00 0.00 71 1012.7
20260506214551 22 198 1.6 14.5 0.00 0.00 0.00 70 1012.6
20260506213055 22 205 1.6 14.5 0.00 0.00 0.00 71 1012.0
20260506211552 21 188 3.2 16.1 0.00 0.00 0.00 71 1012.0
20260506210051 21 171 3.2 17.7 0.00 0.00 0.00 71 1012.4
20260506204551 22 219 1.6 11.3 0.00 0.00 0.00 70 1012.5
20260506203043 21 231 3.2 27.4 0.00 0.00 0.00 72 1012.8
20260506201542 21 263 4.8 22.5 0.00 0.00 0.00 73 1012.8
20260506200042 21 229 4.8 22.5 0.00 0.00 0.00 74 1012.4
20260506194549 21 227 3.2 24.1 0.00 0.00 0.00 72 1012.5
20260506193055 20 217 8.0 19.3 0.00 0.00 0.00 74 1012.6
20260506191559 19 112 3.2 19.3 0.00 0.00 0.00 76 1012.7
20260506190043 20 228 3.2 19.3 0.00 0.00 0.00 75 1013.2
20260506184551 20 225 6.4 14.5 0.00 0.00 0.00 77 1013.1
20260506183100 19 0 3.2 12.9 0.00 0.00 0.00 78 1012.6
20260506181602 19 186 3.2 14.5 0.00 0.00 0.00 77 1013.7
20260506180049 19 221 3.2 12.9 0.00 0.00 0.00 75 1014.3
20260506174548 20 0 1.6 16.1 0.00 0.00 0.00 73 1014.9
20260506173110 20 0 4.8 17.7 0.00 0.00 0.00 68 1015.2
20260506171546 20 0 0.0 9.7 0.00 0.00 0.00 68 1014.9
20260506170104 20 233 1.6 12.9 0.00 0.00 0.00 70 1014.8
20260506164552 20 242 1.6 9.7 0.00 0.00 0.00 70 1014.7
20260506163057 20 225 0.0 9.7 0.00 0.00 0.00 69 1015.0
20260506161547 20 174 1.6 8.0 0.00 0.00 0.00 69 1014.9
20260506160050 19 0 3.2 9.7 0.00 0.00 0.00 69 1015.0
20260506154608 19 141 0.0 16.1 0.00 0.00 0.00 70 1014.2
20260506153052 18 159 0.0 14.5 0.00 0.00 0.00 70 1014.2
20260506151552 18 175 0.0 11.3 0.00 0.00 0.00 70 1014.5
20260506150047 18 209 3.2 16.1 0.00 0.00 0.00 69 1014.5
20260506144554 18 209 3.2 19.3 0.00 0.00 0.00 70 1014.6
20260506143052 18 211 4.8 19.3 0.00 0.00 0.00 69 1014.6
20260506141551 18 231 3.2 17.7 0.00 0.00 0.00 69 1014.2
20260506140054 18 243 4.8 19.3 0.00 0.00 0.00 68 1014.3
20260506134554 18 217 3.2 14.5 0.00 0.00 0.00 68 1014.1
20260506133102 18 215 1.6 12.9 0.00 0.00 0.00 68 1014.4
20260506131544 17 215 3.2 17.7 0.00 0.00 0.00 69 1013.9
20260506130044 17 232 3.2 24.1 0.00 0.00 0.00 70 1014.2
20260506124554 17 241 3.2 17.7 0.00 0.00 0.00 70 1014.4
20260506123053 17 226 6.4 24.1 0.00 0.00 0.00 70 1014.6
20260506121553 17 200 4.8 25.7 0.00 0.00 0.00 71 1014.6
20260506120057 16 227 3.2 24.1 0.00 0.00 0.00 72 1014.5
20260506114558 16 0 3.2 16.1 0.00 0.00 0.00 72 1014.5
20260506113051 16 198 1.6 14.5 0.00 0.00 0.00 72 1014.1
20260506111546 16 0 1.6 14.5 0.00 0.00 0.00 73 1014.2
20260506110054 16 215 1.6 17.7 0.00 0.00 0.00 73 1013.9
20260506104610 16 250 1.6 9.7 0.00 0.00 0.00 72 1013.6
20260506103053 16 196 3.2 14.5 0.00 0.00 0.00 71 1013.6
20260506101549 16 0 3.2 12.9 0.00 0.00 0.00 71 1013.7
20260506100046 16 0 4.8 16.1 0.00 0.00 0.00 71 1013.5
20260506094549 16 0 1.6 9.7 0.00 0.00 0.00 70 1013.6
20260506093050 17 0 1.6 14.5 0.00 0.00 0.00 70 1013.7
20260506091550 17 234 1.6 20.9 0.00 0.00 0.00 69 1014.0
20260506090048 17 234 1.6 11.3 0.00 0.00 0.00 69 1014.1
20260506084544 17 212 3.2 12.9 0.00 0.00 0.00 69 1014.1
20260506083047 17 241 1.6 19.3 0.00 0.00 0.00 68 1013.9
20260506081557 17 205 4.8 19.3 0.00 0.00 0.00 68 1014.1